This is the latest recevied weather packets stored in our database for station/object N0MPM-4. If no packets are shown the sender has not sent any weather packets the latest 10 day(s).
| Time | Temp. | Humidity | Pressure | Rain* | Wind** | Luminosity | Snow |
|---|---|---|---|---|---|---|---|
| 1778109574 | 13.89° C | 30% | 1017 hPa | 0 mm | - | - | - |
| 1778109274 | 13.89° C | 32% | 1016.9 hPa | 0 mm | - | - | - |
| 1778108974 | 13.89° C | 30% | 1016.9 hPa | 0 mm | - | - | - |
| 1778108674 | 13.33° C | 32% | 1017 hPa | 0 mm | - | - | - |
| 1778108374 | 13.33° C | 30% | 1017.2 hPa | 0 mm | - | - | - |
| 1778108074 | 13.33° C | 30% | 1017.1 hPa | 0 mm | - | - | - |
| 1778107774 | 13.89° C | 29% | 1017.1 hPa | 0 mm | - | - | - |
| 1778107474 | 13.89° C | 31% | 1017.1 hPa | 0 mm | - | - | - |
| 1778107174 | 13.89° C | 29% | 1017.1 hPa | 0 mm | - | - | - |
| 1778106874 | 13.33° C | 31% | 1016.9 hPa | 0 mm | - | - | - |
| 1778106574 | 13.33° C | 30% | 1016.9 hPa | 0 mm | - | - | - |
| 1778106274 | 13.33° C | 30% | 1017 hPa | 0 mm | - | - | - |
| 1778105974 | 13.33° C | 30% | 1017 hPa | 0 mm | - | - | - |
| 1778105674 | 13.33° C | 31% | 1017 hPa | 0 mm | - | - | - |
| 1778105374 | 13.33° C | 32% | 1016.9 hPa | 0 mm | - | - | - |
| 1778105074 | 12.78° C | 31% | 1017 hPa | 0 mm | - | - | - |
| 1778104774 | 12.78° C | 32% | 1016.9 hPa | 0 mm | - | - | - |
| 1778104474 | 12.78° C | 33% | 1017 hPa | 0 mm | - | - | - |
| 1778104174 | 12.78° C | 34% | 1017 hPa | 0 mm | - | - | - |
| 1778103874 | 12.78° C | 32% | 1017.1 hPa | 0 mm | - | - | - |
| 1778103574 | 12.78° C | 34% | 1017 hPa | 0 mm | - | - | - |
| 1778103274 | 12.22° C | 34% | 1017.1 hPa | 0 mm | - | - | - |
| 1778102974 | 12.78° C | 34% | 1017.2 hPa | 0 mm | - | - | - |
| 1778102674 | 12.78° C | 34% | 1017.3 hPa | 0 mm | - | - | - |
| 1778102374 | 12.78° C | 34% | 1017.3 hPa | 0 mm | - | - | - |
* Rain latest hour (hover to see other rain measurements)
** Current wind speed in m/s (hover to see current wind gust speed)